Location: Newark
(41.6500°N, 71.4833°W)
Time: 07:37:42
(UTC+00:00)

Altair - All Passes

Search period start: 22 January 2020 00:00
Search period end: 01 February 2020 00:00
Orbit: 1502 x 1682 km, 47.2° (Epoch: 21 January)

Date Brightness Start Highest point End Pass type
(mag) Time Alt. Az. Time Alt. Az. Time Alt. Az.
22 Jan - 11:00:32 10° SE 11:02:41 11° ESE 11:04:51 10° ESE visible
22 Jan - 12:56:11 10° SSW 13:05:32 46° SE 13:15:02 10° ENE daylight
22 Jan - 14:59:51 10° WSW 15:10:02 82° NNW 15:20:15 10° ENE daylight
22 Jan - 17:05:41 10° W 17:15:49 64° N 17:25:47 10° E daylight
22 Jan - 19:11:14 10° WNW 19:21:27 89° NNE 19:31:20 10° ESE daylight
22 Jan - 21:16:40 10° WNW 21:25:37 39° SW 21:34:18 10° SSE daylight
23 Jan - 12:31:15 10° SSW 12:40:25 43° SE 12:49:44 10° ENE daylight
23 Jan - 14:34:37 10° WSW 14:44:48 85° NNW 14:55:02 10° ENE daylight
23 Jan - 16:40:24 10° W 16:50:31 64° N 17:00:31 10° E daylight
23 Jan - 18:45:59 10° WNW 18:56:13 85° NNE 19:06:09 10° ESE daylight
23 Jan - 20:51:21 10° WNW 21:00:32 42° SW 21:09:25 10° SSE daylight
24 Jan - 12:06:20 10° SSW 12:15:19 39° SE 12:24:26 10° ENE daylight
24 Jan - 14:09:25 10° WSW 14:19:34 89° NNW 14:29:48 10° ENE daylight
24 Jan - 16:15:06 10° W 16:25:13 64° N 16:35:15 10° E daylight
24 Jan - 18:20:45 10° WNW 18:30:59 82° NNE 18:40:57 10° ESE daylight
24 Jan - 20:26:03 10° WNW 20:35:25 46° SW 20:44:30 10° SSE daylight
24 Jan - 22:36:56 10° WSW 22:38:11 10° WSW 22:39:25 10° SW visible
25 Jan - 11:41:28 10° SSW 11:50:13 36° SE 11:59:06 10° ENE daylight
25 Jan - 13:44:13 10° WSW 13:54:20 88° SSE 14:04:34 10° ENE daylight
25 Jan - 15:49:48 10° W 15:59:55 64° N 16:09:58 10° ENE daylight
25 Jan - 17:55:30 10° WNW 18:05:44 79° NNE 18:15:44 10° ESE daylight
25 Jan - 20:00:46 10° WNW 20:10:18 49° SW 20:19:33 10° SSE daylight
25 Jan - 22:09:47 10° W 22:13:11 12° WSW 22:16:34 10° SW visible
26 Jan - 11:16:38 10° S 11:25:07 33° SE 11:33:46 10° ENE visible
26 Jan - 13:19:02 10° WSW 13:29:07 84° SSE 13:39:20 10° ENE daylight
26 Jan - 15:24:31 10° W 15:34:37 65° N 15:44:42 10° ENE daylight
26 Jan - 17:30:15 10° WNW 17:40:29 77° NNE 17:50:30 10° ESE daylight
26 Jan - 19:35:29 10° WNW 19:45:10 53° SW 19:54:35 10° SSE daylight
26 Jan - 21:43:35 10° W 21:48:11 14° WSW 21:52:43 10° SSW daylight
27 Jan - 10:51:52 10° S 11:00:03 30° SE 11:08:23 10° ENE visible
27 Jan - 12:53:52 10° SW 13:03:54 81° SSE 13:14:06 10° ENE daylight
27 Jan - 14:59:14 10° W 15:09:20 66° N 15:19:26 10° ENE daylight
27 Jan - 17:05:00 10° WNW 17:15:13 75° NNE 17:25:16 10° ESE daylight
27 Jan - 19:10:13 10° WNW 19:20:02 57° SW 19:29:34 10° SE daylight
27 Jan - 21:17:41 10° W 21:23:09 16° WSW 21:28:33 10° SSW daylight
28 Jan - 10:27:08 10° S 10:34:58 28° SE 10:42:58 10° ENE visible
28 Jan - 12:28:45 10° SW 12:38:42 77° SSE 12:48:52 10° ENE daylight
28 Jan - 14:33:56 10° W 14:44:02 67° N 14:54:10 10° ENE daylight
28 Jan - 16:39:44 10° WNW 16:49:57 72° NNE 17:00:01 10° E daylight
28 Jan - 18:44:57 10° WNW 18:54:53 61° SW 19:04:32 10° SE daylight
28 Jan - 20:51:58 10° W 20:58:08 18° SW 21:04:13 10° SSW daylight
29 Jan - 10:02:27 10° S 10:09:55 25° SE 10:17:31 10° ENE visible
29 Jan - 12:03:38 10° SW 12:13:31 73° SSE 12:23:38 10° ENE daylight
29 Jan - 14:08:40 10° W 14:18:45 68° N 14:28:54 10° ENE daylight
29 Jan - 16:14:29 10° WNW 16:24:41 71° NNE 16:34:45 10° E daylight
29 Jan - 18:19:43 10° WNW 18:29:43 65° SW 18:39:29 10° SE daylight
29 Jan - 20:26:20 10° W 20:33:06 21° SW 20:39:45 10° SSW daylight
30 Jan - 09:37:50 10° S 09:44:52 23° SE 09:52:01 10° E visible
30 Jan - 11:38:32 10° SW 11:48:20 68° SE 11:58:24 10° ENE daylight
30 Jan - 13:43:24 10° W 13:53:28 69° NNW 14:03:39 10° ENE daylight
30 Jan - 15:49:13 10° WNW 15:59:24 69° NNE 16:09:29 10° E daylight
30 Jan - 17:54:28 10° WNW 18:04:33 69° SW 18:14:24 10° SE daylight
30 Jan - 20:00:47 10° W 20:08:04 23° SW 20:15:12 10° S daylight
31 Jan - 09:13:17 10° SSE 09:19:49 20° SE 09:26:28 10° E visible
31 Jan - 11:13:27 10° SW 11:23:10 64° SE 11:33:10 10° ENE visible
31 Jan - 13:18:08 10° W 13:28:11 71° NNW 13:38:23 10° ENE daylight
31 Jan - 15:23:58 10° WNW 15:34:07 68° N 15:44:13 10° E daylight
31 Jan - 17:29:14 10° WNW 17:39:22 73° SSW 17:49:18 10° SE daylight
31 Jan - 19:35:18 10° WNW 19:43:00 26° SW 19:50:34 10° S daylight
